SWA210 KDAL-KMDW

Flight info

Callsign SWA210
Flight time 1h 54m
Altitude 37000
Route SWTSR7 MLC RZC DIXEE SPI PHEEB ENDEE8
Aircraft B737/M-SADE2E3GIJ4RWZ/LB1D1

Departure

Time 2026-05-03 21:58
Airport Dallas Love Field (KDAL)

Arrival

Time 2026-05-03 23:52
Airport Chicago Midway International Airport (KMDW)
Time Latitude Longitude Altitude Speed Heading
2026-05-03 21:33 32.84642 -96.84843 477 ft 0 kts 180°
2026-05-03 21:49 32.84662 -96.84843 478 ft 4 kts 180°
2026-05-03 21:50 32.84683 -96.84843 476 ft 4 kts 180°
2026-05-03 21:50 32.84695 -96.84843 478 ft 0 kts 180°
2026-05-03 21:52 32.84694 -96.84843 478 ft 1 kts 180°
2026-05-03 21:53 32.84692 -96.84834 477 ft 1 kts 101°
2026-05-03 21:53 32.84707 -96.84818 476 ft 5 kts 24°
2026-05-03 21:53 32.84756 -96.84845 474 ft 11 kts 317°
2026-05-03 21:53 32.84824 -96.84923 481 ft 15 kts 316°
2026-05-03 21:54 32.84901 -96.85011 483 ft 15 kts 315°
2026-05-03 21:54 32.84973 -96.85096 483 ft 14 kts 311°
2026-05-03 21:54 32.85035 -96.85186 483 ft 14 kts 317°
2026-05-03 21:54 32.85104 -96.85261 483 ft 13 kts 317°
2026-05-03 21:55 32.85171 -96.85333 483 ft 13 kts 317°
2026-05-03 21:55 32.85245 -96.85402 483 ft 14 kts 322°
2026-05-03 21:55 32.85319 -96.85482 483 ft 15 kts 317°
2026-05-03 21:55 32.85397 -96.85570 483 ft 16 kts 317°
2026-05-03 21:56 32.85481 -96.85663 483 ft 17 kts 317°
2026-05-03 21:56 32.85561 -96.85754 483 ft 13 kts 316°
2026-05-03 21:56 32.85621 -96.85786 478 ft 9 kts 18°
2026-05-03 21:56 32.85666 -96.85736 482 ft 9 kts 46°
2026-05-03 21:57 32.85706 -96.85684 484 ft 9 kts 62°
2026-05-03 21:57 32.85678 -96.85622 482 ft 11 kts 136°
2026-05-03 21:57 32.85489 -96.85402 486 ft 73 kts 136°
2026-05-03 21:57 32.84959 -96.84788 484 ft 137 kts 135°
2026-05-03 21:58 32.84189 -96.83861 687 ft 168 kts 139°
2026-05-03 21:58 32.83333 -96.82879 1196 ft 180 kts 142°
2026-05-03 21:58 32.82391 -96.81882 1931 ft 186 kts 145°
2026-05-03 21:58 32.81350 -96.80824 2346 ft 210 kts 143°
2026-05-03 21:59 32.80167 -96.79587 2543 ft 243 kts 142°
2026-05-03 21:59 32.78859 -96.78192 3140 ft 257 kts 141°
2026-05-03 21:59 32.77521 -96.76761 3969 ft 259 kts 142°
2026-05-03 21:59 32.76177 -96.75327 4887 ft 261 kts 142°
2026-05-03 22:00 32.74833 -96.73825 5684 ft 268 kts 139°
2026-05-03 22:00 32.73498 -96.72269 6601 ft 270 kts 139°
2026-05-03 22:00 32.72153 -96.70701 7464 ft 274 kts 139°
2026-05-03 22:00 32.70778 -96.69099 7840 ft 278 kts 137°
2026-05-03 22:01 32.69422 -96.67483 7970 ft 282 kts 134°
2026-05-03 22:01 32.68447 -96.65462 8009 ft 285 kts 108°
2026-05-03 22:01 32.68210 -96.63093 8460 ft 295 kts 93°
2026-05-03 22:01 32.68181 -96.60654 9434 ft 297 kts 92°
2026-05-03 22:02 32.68151 -96.58178 10325 ft 302 kts 91°
2026-05-03 22:02 32.68475 -96.55620 10643 ft 329 kts 68°
2026-05-03 22:02 32.69837 -96.53327 10829 ft 356 kts 39°
2026-05-03 22:02 32.72057 -96.51933 11210 ft 371 kts 15°
2026-05-03 22:03 32.74598 -96.51163 11780 ft 381 kts 13°
2026-05-03 22:03 32.77182 -96.50355 12632 ft 384 kts 14°
2026-05-03 22:03 32.79782 -96.49503 13428 ft 388 kts 10°
2026-05-03 22:03 32.82432 -96.49366 14153 ft 390 kts 351°
2026-05-03 22:04 32.85020 -96.50264 14996 ft 387 kts 335°
2026-05-03 22:04 32.87477 -96.51537 15959 ft 384 kts 333°
2026-05-03 22:04 32.89919 -96.52862 16770 ft 387 kts 333°
2026-05-03 22:04 32.92383 -96.54210 17592 ft 390 kts 333°
2026-05-03 22:05 32.94867 -96.55561 18344 ft 394 kts 333°
2026-05-03 22:05 32.97374 -96.56912 18979 ft 397 kts 334°
2026-05-03 22:05 32.99907 -96.58267 19675 ft 399 kts 334°
2026-05-03 22:05 33.02447 -96.59618 20376 ft 401 kts 333°
2026-05-03 22:06 33.04998 -96.60971 21048 ft 402 kts 333°
2026-05-03 22:06 33.07533 -96.62315 21706 ft 404 kts 333°
2026-05-03 22:06 33.10111 -96.63682 22315 ft 407 kts 333°
2026-05-03 22:06 33.12711 -96.65062 22916 ft 409 kts 333°
2026-05-03 22:07 33.15321 -96.66448 23529 ft 411 kts 333°
2026-05-03 22:07 33.17944 -96.67842 24025 ft 414 kts 333°
2026-05-03 22:07 33.20586 -96.69247 24525 ft 415 kts 333°
2026-05-03 22:07 33.23228 -96.70653 25050 ft 416 kts 333°
2026-05-03 22:08 33.25877 -96.72063 25550 ft 417 kts 333°
2026-05-03 22:08 33.28533 -96.73479 26031 ft 419 kts 332°
2026-05-03 22:08 33.31207 -96.74905 26492 ft 421 kts 332°
2026-05-03 22:08 33.33855 -96.76319 26937 ft 422 kts 332°
2026-05-03 22:09 33.36543 -96.77754 27376 ft 424 kts 332°
2026-05-03 22:09 33.39241 -96.79195 27806 ft 425 kts 332°
2026-05-03 22:09 33.42033 -96.80426 28186 ft 435 kts 343°
2026-05-03 22:10 33.48196 -96.80148 28988 ft 460 kts
2026-05-03 22:10 33.51193 -96.78641 29413 ft 472 kts 20°
2026-05-03 22:10 33.54099 -96.76792 29910 ft 473 kts 21°
2026-05-03 22:10 33.56977 -96.74877 30396 ft 472 kts 22°
2026-05-03 22:11 33.59840 -96.72959 30879 ft 470 kts 21°
2026-05-03 22:11 33.62703 -96.71059 31350 ft 468 kts 20°
2026-05-03 22:11 33.65554 -96.69189 31823 ft 466 kts 20°
2026-05-03 22:11 33.68405 -96.67339 32279 ft 464 kts 19°
2026-05-03 22:12 33.71200 -96.65537 32711 ft 462 kts 19°
2026-05-03 22:12 33.74038 -96.63711 33153 ft 461 kts 18°
2026-05-03 22:12 33.76858 -96.61895 33582 ft 459 kts 18°
2026-05-03 22:12 33.79669 -96.60085 34031 ft 457 kts 18°
2026-05-03 22:13 33.82464 -96.58281 34424 ft 455 kts 18°
2026-05-03 22:13 33.85257 -96.56477 34734 ft 454 kts 18°
2026-05-03 22:13 33.88043 -96.54677 35010 ft 455 kts 18°
2026-05-03 22:13 33.90831 -96.52874 35297 ft 455 kts 18°
2026-05-03 22:14 33.93619 -96.51068 35598 ft 454 kts 18°
2026-05-03 22:14 33.96397 -96.49267 35901 ft 453 kts 17°
2026-05-03 22:14 33.99173 -96.47466 36191 ft 453 kts 17°
2026-05-03 22:14 34.01937 -96.45671 36508 ft 452 kts 18°
2026-05-03 22:15 34.04701 -96.43876 36796 ft 451 kts 18°
2026-05-03 22:15 34.07463 -96.42055 37057 ft 454 kts 20°
2026-05-03 22:15 34.10170 -96.40031 37062 ft 463 kts 23°
2026-05-03 22:16 34.15473 -96.35625 37072 ft 465 kts 25°
2026-05-03 22:16 34.20749 -96.31166 37060 ft 460 kts 24°
2026-05-03 22:17 34.26014 -96.26804 37054 ft 456 kts 24°
2026-05-03 22:17 34.31234 -96.22526 37053 ft 454 kts 24°
2026-05-03 22:18 34.36470 -96.18241 37059 ft 454 kts 24°
2026-05-03 22:18 34.41704 -96.13946 37044 ft 455 kts 24°
2026-05-03 22:19 34.46950 -96.09632 37050 ft 457 kts 24°
2026-05-03 22:19 34.52217 -96.05293 37049 ft 459 kts 25°
2026-05-03 22:20 34.57505 -96.00928 37039 ft 460 kts 25°
2026-05-03 22:20 34.62810 -95.96542 37027 ft 462 kts 25°
2026-05-03 22:21 34.68129 -95.92136 37033 ft 462 kts 25°
2026-05-03 22:21 34.73400 -95.87763 37029 ft 462 kts 25°
2026-05-03 22:22 34.78701 -95.83360 37028 ft 461 kts 25°
2026-05-03 22:22 34.84003 -95.78950 37025 ft 461 kts 25°
2026-05-03 22:23 34.89001 -95.73908 37040 ft 472 kts 35°
2026-05-03 22:23 34.93687 -95.68274 37040 ft 473 kts 37°
2026-05-03 22:24 34.98341 -95.62653 37026 ft 472 kts 36°
2026-05-03 22:24 35.03064 -95.57073 37017 ft 471 kts 36°
2026-05-03 22:25 35.07794 -95.51546 37016 ft 470 kts 36°
2026-05-03 22:25 35.12528 -95.46019 37056 ft 470 kts 36°
2026-05-03 22:26 35.17259 -95.40482 37016 ft 470 kts 36°
2026-05-03 22:26 35.21954 -95.34972 37006 ft 471 kts 36°
2026-05-03 22:27 35.26675 -95.29423 37004 ft 470 kts 36°
2026-05-03 22:27 35.31391 -95.23868 36989 ft 470 kts 36°
2026-05-03 22:28 35.36100 -95.18312 36995 ft 470 kts 37°
2026-05-03 22:28 35.40802 -95.12756 37012 ft 469 kts 37°
2026-05-03 22:29 35.45509 -95.07186 37007 ft 470 kts 37°
2026-05-03 22:29 35.50185 -95.01642 37007 ft 470 kts 37°
2026-05-03 22:30 35.54890 -94.96054 36998 ft 470 kts 37°
2026-05-03 22:30 35.59588 -94.90464 37007 ft 470 kts 37°
2026-05-03 22:31 35.64295 -94.84854 37007 ft 470 kts 37°
2026-05-03 22:31 35.68966 -94.79277 37010 ft 471 kts 37°
2026-05-03 22:32 35.73664 -94.73659 37012 ft 471 kts 37°
2026-05-03 22:32 35.78358 -94.68035 37017 ft 471 kts 37°
2026-05-03 22:33 35.83050 -94.62404 37030 ft 471 kts 37°
2026-05-03 22:33 35.87747 -94.56759 37039 ft 471 kts 37°
2026-05-03 22:34 35.92436 -94.51111 37012 ft 472 kts 37°
2026-05-03 22:34 35.97132 -94.45445 37018 ft 471 kts 37°
2026-05-03 22:35 36.01821 -94.39778 37028 ft 472 kts 37°
2026-05-03 22:35 36.06482 -94.34135 37019 ft 472 kts 37°
2026-05-03 22:36 36.11166 -94.28453 37023 ft 472 kts 37°
2026-05-03 22:36 36.15857 -94.22753 37022 ft 472 kts 37°
2026-05-03 22:37 36.19748 -94.18017 37024 ft 472 kts 37°
2026-05-03 22:37 36.24423 -94.12320 37020 ft 471 kts 37°
2026-05-03 22:38 36.29119 -94.06670 37016 ft 470 kts 36°
2026-05-03 22:38 36.33838 -94.01056 37019 ft 469 kts 36°
2026-05-03 22:39 36.38519 -93.95474 37021 ft 469 kts 36°
2026-05-03 22:39 36.43215 -93.89851 37022 ft 469 kts 36°
2026-05-03 22:40 36.47908 -93.84216 37018 ft 469 kts 36°
2026-05-03 22:40 36.52603 -93.78565 37024 ft 469 kts 36°
2026-05-03 22:41 36.57296 -93.72907 37007 ft 469 kts 36°
2026-05-03 22:41 36.61981 -93.67251 36997 ft 469 kts 36°
2026-05-03 22:42 36.66658 -93.61593 36984 ft 469 kts 36°
2026-05-03 22:42 36.71302 -93.55966 37001 ft 469 kts 36°
2026-05-03 22:43 36.75984 -93.50283 36993 ft 469 kts 36°
2026-05-03 22:43 36.80664 -93.44591 36995 ft 469 kts 36°
2026-05-03 22:44 36.85331 -93.38906 36985 ft 469 kts 36°
2026-05-03 22:44 36.89995 -93.33213 36976 ft 469 kts 36°
2026-05-03 22:45 36.94626 -93.27551 36987 ft 469 kts 36°
2026-05-03 22:45 36.99287 -93.21841 36987 ft 469 kts 36°
2026-05-03 22:46 37.03951 -93.16118 36975 ft 469 kts 36°
2026-05-03 22:46 37.08607 -93.10394 36978 ft 469 kts 36°
2026-05-03 22:47 37.13263 -93.04659 36998 ft 469 kts 36°
2026-05-03 22:47 37.17908 -92.98928 36980 ft 469 kts 36°
2026-05-03 22:48 37.22561 -92.93176 36975 ft 469 kts 36°
2026-05-03 22:48 37.27174 -92.87464 36970 ft 468 kts 36°
2026-05-03 22:49 37.31807 -92.81715 36958 ft 468 kts 36°
2026-05-03 22:49 37.36439 -92.75958 36964 ft 468 kts 36°
2026-05-03 22:50 37.41063 -92.70201 36957 ft 468 kts 36°
2026-05-03 22:50 37.45684 -92.64436 36992 ft 468 kts 36°
2026-05-03 22:51 37.50283 -92.58689 36969 ft 468 kts 36°
2026-05-03 22:51 37.54905 -92.52902 36955 ft 468 kts 36°
2026-05-03 22:52 37.59521 -92.47110 36959 ft 468 kts 36°
2026-05-03 22:52 37.64136 -92.41310 36958 ft 468 kts 36°
2026-05-03 22:53 37.68750 -92.35502 36926 ft 468 kts 36°
2026-05-03 22:53 37.73336 -92.29718 36931 ft 469 kts 36°
2026-05-03 22:54 37.77944 -92.23893 36919 ft 468 kts 36°
2026-05-03 22:54 37.82553 -92.18057 36907 ft 468 kts 36°
2026-05-03 22:55 37.87158 -92.12216 36927 ft 468 kts 36°
2026-05-03 22:55 37.91749 -92.06381 36912 ft 468 kts 36°
2026-05-03 22:56 37.96342 -92.00533 36921 ft 468 kts 36°
2026-05-03 22:56 38.00939 -91.94668 36929 ft 468 kts 36°
2026-05-03 22:57 38.05529 -91.88802 36933 ft 468 kts 36°
2026-05-03 22:57 38.10090 -91.82961 36923 ft 468 kts 36°
2026-05-03 22:58 38.14681 -91.77071 36930 ft 468 kts 36°
2026-05-03 22:58 38.19262 -91.71182 36959 ft 468 kts 36°
2026-05-03 22:59 38.23844 -91.65282 36930 ft 468 kts 36°
2026-05-03 22:59 38.28397 -91.59407 36912 ft 468 kts 36°
2026-05-03 23:00 38.32964 -91.53503 36909 ft 468 kts 36°
2026-05-03 23:00 38.37525 -91.47595 36906 ft 468 kts 36°
2026-05-03 23:01 38.42094 -91.41666 36907 ft 468 kts 36°
2026-05-03 23:01 38.46650 -91.35742 36893 ft 468 kts 36°
2026-05-03 23:02 38.51204 -91.29809 36881 ft 468 kts 36°
2026-05-03 23:02 38.55760 -91.23862 36882 ft 468 kts 37°
2026-05-03 23:03 38.60334 -91.17981 36875 ft 466 kts 34°
2026-05-03 23:03 38.65083 -91.12363 36921 ft 464 kts 33°
2026-05-03 23:04 38.69874 -91.06778 36891 ft 466 kts 33°
2026-05-03 23:04 38.74645 -91.01147 36885 ft 467 kts 33°
2026-05-03 23:05 38.79379 -90.95506 36878 ft 467 kts 34°
2026-05-03 23:05 38.84134 -90.89815 36881 ft 467 kts 34°
2026-05-03 23:06 38.88885 -90.84120 36887 ft 467 kts 34°
2026-05-03 23:06 38.93602 -90.78459 36883 ft 467 kts 34°
2026-05-03 23:07 38.98355 -90.72743 36873 ft 468 kts 34°
2026-05-03 23:07 39.03118 -90.67005 36875 ft 469 kts 34°
2026-05-03 23:08 39.07888 -90.61246 36875 ft 470 kts 34°
2026-05-03 23:08 39.12653 -90.55482 36915 ft 470 kts 34°
2026-05-03 23:09 39.17435 -90.49687 36876 ft 471 kts 34°
2026-05-03 23:09 39.22177 -90.43928 36871 ft 472 kts 34°
2026-05-03 23:10 39.26961 -90.38106 36888 ft 472 kts 34°
2026-05-03 23:10 39.31736 -90.32286 36871 ft 472 kts 35°
2026-05-03 23:11 39.36518 -90.26444 36912 ft 473 kts 35°
2026-05-03 23:11 39.41299 -90.20592 36880 ft 473 kts 35°
2026-05-03 23:12 39.46048 -90.14767 36873 ft 473 kts 35°
2026-05-03 23:12 39.50823 -90.08899 36873 ft 473 kts 35°
2026-05-03 23:13 39.55617 -90.02996 36872 ft 472 kts 35°
2026-05-03 23:13 39.60349 -89.97158 36913 ft 473 kts 35°
2026-05-03 23:14 39.65113 -89.91270 36885 ft 473 kts 35°
2026-05-03 23:14 39.69885 -89.85357 36870 ft 473 kts 35°
2026-05-03 23:15 39.74642 -89.79452 36863 ft 473 kts 35°
2026-05-03 23:15 39.79368 -89.73574 36852 ft 474 kts 35°
2026-05-03 23:16 39.84143 -89.67665 36857 ft 471 kts 33°
2026-05-03 23:16 39.89296 -89.62537 36419 ft 468 kts 26°
2026-05-03 23:16 39.91943 -89.60100 35854 ft 463 kts 25°
2026-05-03 23:17 39.94581 -89.57672 35045 ft 463 kts 25°
2026-05-03 23:17 39.97183 -89.55254 34277 ft 462 kts 24°
2026-05-03 23:17 39.99780 -89.52813 33494 ft 460 kts 24°
2026-05-03 23:17 40.02378 -89.50349 32746 ft 457 kts 24°
2026-05-03 23:18 40.04925 -89.47917 32155 ft 452 kts 25°
2026-05-03 23:18 40.07454 -89.45497 31564 ft 447 kts 25°
2026-05-03 23:18 40.09944 -89.43113 30982 ft 442 kts 25°
2026-05-03 23:18 40.12404 -89.40760 30433 ft 437 kts 25°
2026-05-03 23:19 40.14853 -89.38418 30016 ft 437 kts 25°
2026-05-03 23:19 40.17285 -89.36091 29904 ft 428 kts 25°
2026-05-03 23:19 40.19643 -89.33821 29852 ft 412 kts 25°
2026-05-03 23:19 40.21909 -89.31639 29837 ft 396 kts 25°
2026-05-03 23:20 40.24101 -89.29536 29855 ft 389 kts 24°
2026-05-03 23:20 40.28461 -89.25357 29555 ft 384 kts 24°
2026-05-03 23:20 40.30578 -89.23312 29076 ft 384 kts 24°
2026-05-03 23:21 40.32741 -89.21225 28366 ft 387 kts 25°
2026-05-03 23:21 40.34913 -89.19125 27699 ft 389 kts 25°
2026-05-03 23:21 40.37097 -89.17010 27048 ft 390 kts 25°
2026-05-03 23:21 40.39283 -89.14892 26407 ft 391 kts 25°
2026-05-03 23:22 40.43926 -89.11553 25164 ft 377 kts 13°
2026-05-03 23:22 40.46320 -89.10117 24560 ft 378 kts 14°
2026-05-03 23:22 40.48711 -89.08643 23983 ft 379 kts 15°
2026-05-03 23:23 40.51092 -89.07135 23392 ft 380 kts 15°
2026-05-03 23:23 40.53470 -89.05610 22709 ft 379 kts 16°
2026-05-03 23:23 40.55839 -89.04083 22034 ft 379 kts 16°
2026-05-03 23:23 40.58174 -89.02574 21387 ft 378 kts 17°
2026-05-03 23:24 40.60532 -89.01049 20740 ft 376 kts 17°
2026-05-03 23:24 40.62885 -88.99526 20106 ft 375 kts 17°
2026-05-03 23:24 40.65223 -88.98013 19484 ft 373 kts 18°
2026-05-03 23:24 40.66773 -88.97010 19079 ft 372 kts 18°
2026-05-03 23:25 40.69088 -88.95512 18482 ft 370 kts 18°
2026-05-03 23:25 40.72115 -88.93547 17930 ft 361 kts 18°
2026-05-03 23:25 40.74358 -88.92090 17464 ft 356 kts 18°
2026-05-03 23:25 40.76566 -88.90658 17040 ft 353 kts 18°
2026-05-03 23:26 40.78024 -88.89712 16762 ft 352 kts 19°
2026-05-03 23:26 40.80219 -88.88289 16341 ft 351 kts 19°
2026-05-03 23:26 40.82409 -88.86867 15925 ft 349 kts 19°
2026-05-03 23:26 40.84584 -88.85451 15523 ft 348 kts 19°
2026-05-03 23:27 40.86753 -88.84040 15122 ft 347 kts 19°
2026-05-03 23:27 40.88915 -88.82634 14708 ft 346 kts 19°
2026-05-03 23:27 40.91065 -88.81236 14318 ft 344 kts 20°
2026-05-03 23:27 40.93200 -88.79846 14086 ft 338 kts 20°
2026-05-03 23:28 40.95290 -88.78481 14048 ft 328 kts 20°
2026-05-03 23:28 40.97280 -88.77178 14028 ft 311 kts 20°
2026-05-03 23:28 40.99164 -88.75943 14024 ft 294 kts 19°
2026-05-03 23:28 41.00943 -88.74778 14022 ft 278 kts 19°
2026-05-03 23:29 41.02634 -88.73672 14026 ft 263 kts 18°
2026-05-03 23:29 41.04233 -88.72627 14024 ft 248 kts 18°
2026-05-03 23:29 41.05753 -88.71635 13821 ft 244 kts 18°
2026-05-03 23:29 41.07311 -88.70630 13292 ft 253 kts 18°
2026-05-03 23:30 41.08889 -88.69607 12782 ft 259 kts 19°
2026-05-03 23:30 41.10529 -88.68539 12275 ft 265 kts 19°
2026-05-03 23:30 41.12195 -88.67449 11761 ft 270 kts 20°
2026-05-03 23:30 41.13900 -88.66332 11291 ft 275 kts 21°
2026-05-03 23:31 41.15627 -88.65199 10804 ft 279 kts 21°
2026-05-03 23:31 41.17382 -88.64048 10314 ft 282 kts 21°
2026-05-03 23:31 41.19154 -88.62885 9837 ft 286 kts 21°
2026-05-03 23:31 41.20948 -88.61709 9339 ft 288 kts 21°
2026-05-03 23:32 41.22740 -88.60535 8916 ft 286 kts 21°
2026-05-03 23:32 41.24519 -88.59368 8538 ft 284 kts 21°
2026-05-03 23:32 41.26288 -88.58207 8128 ft 283 kts 21°
2026-05-03 23:32 41.28032 -88.57062 7721 ft 283 kts 21°
2026-05-03 23:33 41.29791 -88.55907 7333 ft 281 kts 22°
2026-05-03 23:33 41.31551 -88.54751 6940 ft 281 kts 21°
2026-05-03 23:33 41.33301 -88.53601 6555 ft 280 kts 21°
2026-05-03 23:33 41.35039 -88.52456 6216 ft 277 kts 21°
2026-05-03 23:34 41.36765 -88.51311 6048 ft 277 kts 24°
2026-05-03 23:34 41.38263 -88.49645 6025 ft 287 kts 46°
2026-05-03 23:34 41.39527 -88.47566 6019 ft 289 kts 47°
2026-05-03 23:34 41.40779 -88.45462 6017 ft 291 kts 48°
2026-05-03 23:35 41.42045 -88.43340 6020 ft 294 kts 48°
2026-05-03 23:35 41.43322 -88.41211 6014 ft 295 kts 48°
2026-05-03 23:35 41.44608 -88.39075 6013 ft 296 kts 48°
2026-05-03 23:35 41.45905 -88.36931 6010 ft 296 kts 48°
2026-05-03 23:36 41.47198 -88.34797 6008 ft 297 kts 48°
2026-05-03 23:36 41.48496 -88.32653 6001 ft 296 kts 48°
2026-05-03 23:36 41.49787 -88.30521 6002 ft 295 kts 48°
2026-05-03 23:36 41.51054 -88.28377 6006 ft 295 kts 52°
2026-05-03 23:37 41.52148 -88.26105 6021 ft 295 kts 56°
2026-05-03 23:37 41.53210 -88.23730 6013 ft 295 kts 57°
2026-05-03 23:37 41.54251 -88.21404 6006 ft 295 kts 56°
2026-05-03 23:37 41.55316 -88.19065 6022 ft 294 kts 56°
2026-05-03 23:38 41.56384 -88.16743 6018 ft 294 kts 56°
2026-05-03 23:38 41.57457 -88.14420 6014 ft 294 kts 56°
2026-05-03 23:38 41.58531 -88.12095 6020 ft 294 kts 56°
2026-05-03 23:38 41.59603 -88.09774 6019 ft 294 kts 56°
2026-05-03 23:39 41.60677 -88.07450 6009 ft 294 kts 56°
2026-05-03 23:39 41.61756 -88.05112 6023 ft 295 kts 56°
2026-05-03 23:39 41.62837 -88.02767 6030 ft 296 kts 56°
2026-05-03 23:39 41.63918 -88.00421 6022 ft 298 kts 56°
2026-05-03 23:40 41.65007 -87.98054 6017 ft 299 kts 56°
2026-05-03 23:40 41.66105 -87.95669 5806 ft 304 kts 56°
2026-05-03 23:40 41.67212 -87.93259 5550 ft 303 kts 57°
2026-05-03 23:40 41.68307 -87.90872 5276 ft 300 kts 57°
2026-05-03 23:41 41.69388 -87.88515 5060 ft 293 kts 57°
2026-05-03 23:41 41.70421 -87.86258 4996 ft 281 kts 57°
2026-05-03 23:41 41.71427 -87.84061 4973 ft 268 kts 57°
2026-05-03 23:41 41.72383 -87.81975 4991 ft 264 kts 57°
2026-05-03 23:42 41.73342 -87.79879 5006 ft 264 kts 57°
2026-05-03 23:42 41.74304 -87.77777 5010 ft 266 kts 56°
2026-05-03 23:42 41.75241 -87.75634 5005 ft 269 kts 65°
2026-05-03 23:42 41.75595 -87.73184 5026 ft 269 kts 89°
2026-05-03 23:43 41.75690 -87.70672 5003 ft 271 kts 89°
2026-05-03 23:43 41.75793 -87.68144 5006 ft 273 kts 89°
2026-05-03 23:43 41.75904 -87.65603 5005 ft 273 kts 88°
2026-05-03 23:43 41.76017 -87.63078 4908 ft 271 kts 88°
2026-05-03 23:44 41.76037 -87.60565 4774 ft 268 kts 95°
2026-05-03 23:44 41.75947 -87.58077 4645 ft 266 kts 97°
2026-05-03 23:44 41.75813 -87.55603 4521 ft 267 kts 98°
2026-05-03 23:44 41.75717 -87.53112 4406 ft 270 kts 88°
2026-05-03 23:45 41.76263 -87.50728 4254 ft 267 kts 56°
2026-05-03 23:45 41.77538 -87.49047 4107 ft 254 kts 22°
2026-05-03 23:45 41.79144 -87.48414 3977 ft 239 kts 359°
2026-05-03 23:45 41.80795 -87.48223 3777 ft 237 kts 356°
2026-05-03 23:46 41.82419 -87.48084 3564 ft 230 kts 356°
2026-05-03 23:46 41.83993 -87.47953 3295 ft 223 kts 354°
2026-05-03 23:46 41.85404 -87.48362 3058 ft 194 kts 316°
2026-05-03 23:46 41.86210 -87.49590 3021 ft 167 kts 282°
2026-05-03 23:47 41.86295 -87.51065 3007 ft 156 kts 256°
2026-05-03 23:47 41.85892 -87.52410 3009 ft 157 kts 244°
2026-05-03 23:47 41.85418 -87.53743 3002 ft 158 kts 244°
2026-05-03 23:47 41.85025 -87.55117 2990 ft 160 kts 259°
2026-05-03 23:48 41.84950 -87.56590 3001 ft 161 kts 263°
2026-05-03 23:48 41.84881 -87.58093 2999 ft 161 kts 263°
2026-05-03 23:48 41.84813 -87.59590 2987 ft 157 kts 263°
2026-05-03 23:48 41.84748 -87.61009 2859 ft 147 kts 262°
2026-05-03 23:49 41.84685 -87.62311 2706 ft 132 kts 261°
2026-05-03 23:49 41.84630 -87.63467 2578 ft 121 kts 260°
2026-05-03 23:49 41.84560 -87.64568 2434 ft 114 kts 254°
2026-05-03 23:49 41.84256 -87.65545 2312 ft 117 kts 244°
2026-05-03 23:50 41.83930 -87.66568 2152 ft 119 kts 245°
2026-05-03 23:50 41.83718 -87.67242 2043 ft 118 kts 245°
2026-05-03 23:50 41.83291 -87.68570 1840 ft 121 kts 242°
2026-05-03 23:50 41.82823 -87.69552 1704 ft 127 kts 230°
2026-05-03 23:51 41.82218 -87.70460 1558 ft 132 kts 227°
2026-05-03 23:51 41.81567 -87.71333 1377 ft 133 kts 223°
2026-05-03 23:51 41.80885 -87.72169 1204 ft 133 kts 222°
2026-05-03 23:51 41.80216 -87.73021 969 ft 130 kts 222°
2026-05-03 23:52 41.79568 -87.73839 789 ft 127 kts 221°
2026-05-03 23:52 41.78926 -87.74657 641 ft 126 kts 220°
2026-05-03 23:52 41.78383 -87.75342 634 ft 78 kts 223°
2026-05-03 23:52 41.78130 -87.75662 630 ft 34 kts 223°
2026-05-03 23:53 41.77990 -87.75839 628 ft 16 kts 223°
2026-05-03 23:53 41.77923 -87.75851 635 ft 11 kts 129°
2026-05-03 23:53 41.77917 -87.75754 628 ft 11 kts 80°
2026-05-03 23:53 41.77959 -87.75677 632 ft 10 kts 44°
2026-05-03 23:54 41.78011 -87.75611 628 ft 11 kts 43°
2026-05-03 23:54 41.78071 -87.75535 628 ft 13 kts 43°
2026-05-03 23:54 41.78141 -87.75447 628 ft 15 kts 43°
2026-05-03 23:54 41.78222 -87.75343 632 ft 17 kts 43°
2026-05-03 23:55 41.78313 -87.75229 630 ft 18 kts 43°
2026-05-03 23:55 41.78400 -87.75118 630 ft 17 kts 43°
2026-05-03 23:55 41.78485 -87.75010 630 ft 16 kts 43°
2026-05-03 23:55 41.78566 -87.74907 631 ft 16 kts 43°
2026-05-03 23:56 41.78641 -87.74812 630 ft 12 kts 42°
2026-05-03 23:56 41.78713 -87.74765 636 ft 12 kts 40°
2026-05-03 23:56 41.78771 -87.74691 634 ft 11 kts 44°
2026-05-03 23:56 41.78827 -87.74620 630 ft 11 kts 42°
2026-05-03 23:57 41.78880 -87.74555 628 ft 7 kts 44°
2026-05-03 23:57 41.78882 -87.74496 628 ft 7 kts 129°
2026-05-03 23:57 41.78853 -87.74454 628 ft 5 kts 126°
2026-05-03 23:57 41.78841 -87.74430 628 ft 2 kts 122°
2026-05-03 23:58 41.78839 -87.74425 628 ft 0 kts 122°